User: anonymous   Login
Location: Bannatyne
(13.0833°N, 59.5333°W)
Time: 00:44:20
(UTC+00:00)
Language:

Transit 4A - Orbit

View from above orbital plane
View from above orbital plane
View from above satellite
View from above satellite

Ground track
Ground track

The orbit data is extracted from the following two-line orbital elements,

1   116U 61015A   20019.06783052 -.00000045  00000-0  24335-4 0  9995
2   116  66.8077 215.8411 0069712 116.4571 244.3682 13.91764525971386
Epoch (UTC): 19 January 2020 01:37:40
Eccentricity: 0.0069712
inclination: 66.8077°
perigee height: 871 km
apogee height: 973 km
right ascension of ascending node: 215.8411°
argument of perigee: 116.4571°
revolutions per day: 13.91764525
mean anomaly at epoch: 244.3682°
orbit number at epoch: 97138

The dashed part of the orbit path shows where the satellite is in the earth's shadow,  

DLR